| time (UTC) | temp F | wind direction | speed knots | gust knots | rain 1hr in | rain 24hr in | rain mn in | humidity % | barometer mb |
| 20260509180027 | 84 | 248 | 3.5 | 8.7 | 0.00 | 0.00 | 0.00 | 62 | 1010.3 |
| 20260509174527 | 84 | 194 | 2.6 | 7.0 | 0.00 | 0.00 | 0.00 | 63 | 1010.5 |
| 20260509173028 | 83 | 221 | 3.5 | 9.6 | 0.00 | 0.00 | 0.00 | 63 | 1010.7 |
| 20260509171528 | 83 | 79 | 3.5 | 10.4 | 0.00 | 0.00 | 0.00 | 64 | 1010.9 |
| 20260509170030 | 83 | 177 | 4.3 | 10.4 | 0.00 | 0.00 | 0.00 | 64 | 1010.8 |
| 20260509164530 | 81 | 148 | 1.7 | 7.0 | 0.00 | 0.00 | 0.00 | 65 | 1010.9 |
| 20260509163031 | 82 | 158 | 1.7 | 6.1 | 0.00 | 0.00 | 0.00 | 66 | 1010.9 |
| 20260509161530 | 80 | 162 | 2.6 | 7.8 | 0.00 | 0.00 | 0.00 | 68 | 1010.8 |
| 20260509160028 | 80 | 94 | 3.5 | 7.8 | 0.00 | 0.00 | 0.00 | 68 | 1010.8 |
| 20260509154533 | 79 | 78 | 0.9 | 8.7 | 0.00 | 0.00 | 0.00 | 70 | 1010.7 |
| 20260509153032 | 77 | 83 | 4.3 | 11.3 | 0.00 | 0.00 | 0.00 | 72 | 1010.7 |
| 20260509151533 | 77 | 72 | 1.7 | 8.7 | 0.00 | 0.00 | 0.00 | 74 | 1010.6 |
| 20260509150026 | 76 | 86 | 2.6 | 7.8 | 0.00 | 0.00 | 0.00 | 76 | 1010.8 |
| 20260509144529 | 75 | 104 | 1.7 | 7.0 | 0.00 | 0.00 | 0.00 | 76 | 1010.9 |
| 20260509143038 | 74 | 94 | 2.6 | 6.1 | 0.00 | 0.00 | 0.00 | 78 | 1010.8 |
| 20260509141529 | 73 | 122 | 1.7 | 7.0 | 0.00 | 0.00 | 0.00 | 81 | 1010.6 |
| 20260509140052 | 72 | 74 | 0.9 | 7.0 | 0.00 | 0.00 | 0.00 | 84 | 1010.5 |
| 20260509134527 | 71 | 109 | 0.0 | 2.6 | 0.00 | 0.00 | 0.00 | 86 | 1010.5 |
| 20260509133029 | 71 | 82 | 0.9 | 3.5 | 0.00 | 0.00 | 0.00 | 87 | 1010.2 |
| 20260509131535 | 70 | 0 | 0.0 | 2.6 | 0.00 | 0.00 | 0.00 | 87 | 1010.2 |
| 20260509130029 | 70 | 0 | 0.0 | 2.6 | 0.00 | 0.00 | 0.00 | 87 | 1010.0 |
| 20260509124535 | 70 | 0 | 0.0 | 2.6 | 0.00 | 0.00 | 0.00 | 87 | 1010.1 |
| 20260509123028 | 70 | 0 | 0.0 | 0.0 | 0.00 | 0.00 | 0.00 | 87 | 1010.1 |
| 20260509121544 | 69 | 0 | 0.0 | 0.0 | 0.00 | 0.00 | 0.00 | 86 | 1010.0 |
| 20260509120035 | 70 | 0 | 0.0 | 1.7 | 0.00 | 0.00 | 0.00 | 86 | 1010.1 |
| 20260509114529 | 70 | 236 | 0.9 | 2.6 | 0.00 | 0.00 | 0.00 | 86 | 1009.8 |
| 20260509113027 | 70 | 257 | 0.9 | 2.6 | 0.00 | 0.00 | 0.00 | 86 | 1009.4 |
| 20260509104532 | 70 | 283 | 1.7 | 5.2 | 0.00 | 0.00 | 0.00 | 86 | 1008.8 |
| 20260509103035 | 70 | 238 | 0.0 | 2.6 | 0.00 | 0.00 | 0.00 | 86 | 1009.0 |
| 20260509101532 | 70 | 0 | 0.0 | 0.0 | 0.00 | 0.00 | 0.00 | 86 | 1008.9 |
| 20260509093031 | 70 | 0 | 0.0 | 6.1 | 0.00 | 0.00 | 0.00 | 85 | 1008.2 |
| 20260509091532 | 70 | 288 | 4.3 | 9.6 | 0.00 | 0.00 | 0.00 | 85 | 1007.3 |
| 20260509084536 | 70 | 274 | 4.3 | 9.6 | 0.00 | 0.00 | 0.00 | 84 | 1007.6 |
| 20260509083038 | 70 | 271 | 4.3 | 8.7 | 0.00 | 0.00 | 0.00 | 84 | 1008.2 |
| 20260509081530 | 70 | 306 | 3.5 | 8.7 | 0.00 | 0.00 | 0.00 | 84 | 1008.9 |
| 20260509080031 | 69 | 294 | 2.6 | 6.1 | 0.00 | 0.00 | 0.00 | 84 | 1009.6 |
| 20260509074530 | 69 | 264 | 0.9 | 2.6 | 0.00 | 0.00 | 0.00 | 84 | 1010.0 |
| 20260509073029 | 69 | 0 | 0.9 | 2.6 | 0.00 | 0.00 | 0.00 | 83 | 1010.6 |
| 20260509071528 | 69 | 0 | 0.0 | 0.9 | 0.00 | 0.00 | 0.00 | 83 | 1010.8 |
| 20260509070032 | 69 | 0 | 0.0 | 0.9 | 0.00 | 0.00 | 0.00 | 83 | 1010.6 |
| 20260509064528 | 69 | 313 | 0.0 | 2.6 | 0.00 | 0.00 | 0.00 | 83 | 1009.8 |
| 20260509063027 | 69 | 0 | 0.0 | 1.7 | 0.00 | 0.00 | 0.00 | 82 | 1010.0 |
| 20260509061533 | 70 | 291 | 1.7 | 3.5 | 0.00 | 0.00 | 0.00 | 81 | 1009.9 |
| 20260509060029 | 70 | 0 | 0.0 | 0.0 | 0.00 | 0.00 | 0.00 | 80 | 1010.6 |
| 20260509054531 | 71 | 0 | 0.0 | 2.6 | 0.00 | 0.00 | 0.00 | 80 | 1011.1 |
| 20260509053037 | 71 | 79 | 0.0 | 2.6 | 0.00 | 0.00 | 0.00 | 80 | 1010.9 |
| 20260509051529 | 71 | 127 | 0.9 | 4.3 | 0.00 | 0.00 | 0.00 | 79 | 1011.4 |
| 20260509050032 | 71 | 0 | 0.9 | 3.5 | 0.00 | 0.00 | 0.00 | 79 | 1010.2 |
| 20260509044529 | 71 | 0 | 0.0 | 6.1 | 0.00 | 0.00 | 0.00 | 78 | 1010.0 |
| 20260509043029 | 71 | 327 | 1.7 | 7.8 | 0.00 | 0.00 | 0.00 | 77 | 1009.5 |
| 20260509041539 | 72 | 275 | 3.5 | 7.0 | 0.00 | 0.00 | 0.00 | 76 | 1009.6 |
| 20260509040029 | 72 | 0 | 0.0 | 0.9 | 0.00 | 0.00 | 0.00 | 75 | 1010.9 |
| 20260509034529 | 72 | 0 | 0.0 | 2.6 | 0.00 | 0.00 | 0.00 | 76 | 1010.9 |
| 20260509033030 | 72 | 0 | 0.0 | 0.9 | 0.00 | 0.00 | 0.00 | 76 | 1010.6 |
| 20260509031532 | 72 | 0 | 0.0 | 2.6 | 0.00 | 0.00 | 0.00 | 76 | 1010.1 |
| 20260509030031 | 71 | 287 | 0.9 | 2.6 | 0.00 | 0.00 | 0.00 | 76 | 1010.2 |
| 20260509024530 | 71 | 315 | 0.0 | 3.5 | 0.00 | 0.00 | 0.00 | 76 | 1009.7 |
| 20260509023029 | 72 | 294 | 1.7 | 4.3 | 0.00 | 0.00 | 0.00 | 75 | 1009.2 |
| 20260509021529 | 72 | 286 | 1.7 | 3.5 | 0.00 | 0.00 | 0.00 | 75 | 1009.2 |
| 20260509020032 | 72 | 347 | 2.6 | 5.2 | 0.00 | 0.00 | 0.00 | 75 | 1009.1 |
| 20260509014527 | 72 | 311 | 0.9 | 1.7 | 0.00 | 0.00 | 0.00 | 74 | 1009.0 |
| 20260509013036 | 72 | 311 | 0.9 | 2.6 | 0.00 | 0.00 | 0.00 | 74 | 1008.8 |
| 20260509011530 | 72 | 0 | 0.9 | 2.6 | 0.00 | 0.00 | 0.00 | 73 | 1008.7 |
| 20260509010040 | 72 | 300 | 1.7 | 6.1 | 0.00 | 0.00 | 0.00 | 73 | 1008.5 |
| 20260509004530 | 72 | 333 | 2.6 | 7.0 | 0.00 | 0.00 | 0.00 | 72 | 1008.3 |
| 20260509003030 | 72 | 331 | 1.7 | 6.1 | 0.00 | 0.00 | 0.00 | 71 | 1008.3 |
| 20260509001529 | 73 | 338 | 2.6 | 7.0 | 0.00 | 0.00 | 0.00 | 71 | 1008.2 |
| 20260509000027 | 74 | 335 | 1.7 | 6.1 | 0.00 | 0.00 | 0.00 | 69 | 1008.5 |
| 20260508234528 | 73 | 329 | 2.6 | 6.1 | 0.00 | 0.00 | 0.00 | 68 | 1008.6 |
| 20260508233030 | 74 | 293 | 2.6 | 7.0 | 0.00 | 0.00 | 0.00 | 68 | 1008.7 |
| 20260508231530 | 74 | 268 | 1.7 | 7.8 | 0.00 | 0.00 | 0.00 | 68 | 1008.9 |
| 20260508230037 | 75 | 312 | 3.5 | 7.0 | 0.00 | 0.00 | 0.00 | 67 | 1008.9 |
| 20260508224537 | 76 | 297 | 3.5 | 8.7 | 0.00 | 0.00 | 0.00 | 66 | 1008.8 |
| 20260508223036 | 76 | 252 | 3.5 | 9.6 | 0.00 | 0.00 | 0.00 | 67 | 1008.8 |
| 20260508221542 | 76 | 338 | 3.5 | 10.4 | 0.00 | 0.00 | 0.00 | 66 | 1008.6 |
| 20260508220030 | 77 | 333 | 4.3 | 8.7 | 0.00 | 0.00 | 0.00 | 66 | 1008.6 |
| 20260508214530 | 77 | 360 | 3.5 | 8.7 | 0.00 | 0.00 | 0.00 | 64 | 1008.7 |
| 20260508213027 | 76 | 267 | 3.5 | 7.8 | 0.00 | 0.00 | 0.00 | 65 | 1008.6 |
| 20260508211530 | 74 | 263 | 2.6 | 7.0 | 0.00 | 0.00 | 0.00 | 68 | 1009.3 |
| 20260508210030 | 73 | 329 | 2.6 | 7.0 | 0.00 | 0.00 | 0.00 | 68 | 1010.0 |
| 20260508204533 | 74 | 323 | 1.7 | 7.8 | 0.00 | 0.00 | 0.00 | 67 | 1010.3 |
| 20260508203028 | 74 | 348 | 2.6 | 7.8 | 0.00 | 0.00 | 0.00 | 65 | 1010.6 |
| 20260508201531 | 75 | 351 | 4.3 | 8.7 | 0.00 | 0.00 | 0.00 | 63 | 1010.3 |
| 20260508200028 | 77 | 337 | 3.5 | 9.6 | 0.00 | 0.00 | 0.00 | 61 | 1010.5 |
| 20260508194528 | 76 | 325 | 4.3 | 8.7 | 0.00 | 0.00 | 0.00 | 62 | 1010.7 |
| 20260508193029 | 77 | 308 | 4.3 | 9.6 | 0.00 | 0.00 | 0.00 | 62 | 1010.8 |
| 20260508191530 | 76 | 284 | 4.3 | 9.6 | 0.00 | 0.00 | 0.00 | 62 | 1010.9 |
| 20260508190040 | 77 | 283 | 3.5 | 8.7 | 0.00 | 0.00 | 0.00 | 62 | 1011.0 |
| 20260508184534 | 77 | 334 | 4.3 | 9.6 | 0.00 | 0.00 | 0.00 | 61 | 1011.2 |
| 20260508183030 | 76 | 284 | 3.5 | 9.6 | 0.00 | 0.00 | 0.00 | 62 | 1011.4 |
| 20260508181529 | 75 | 338 | 2.6 | 7.8 | 0.00 | 0.00 | 0.00 | 60 | 1011.6 |